CW0214 Weather Reports


Display with metric or nautical units.
time (UTC)temp
F
wind
direction
speed
MPH
gust
MPH
rain 1hr
in
rain 24hr
in
rain mn
in
humidity
%
barometer
mb
20260905152405 101 110 1.0 8.0 0.00 0.00 0.00 26 1017.1
20260905151905 100 15 1.0 10.0 0.00 0.00 0.00 26 1017.1
20260905150905 100 18 5.0 14.0 0.00 0.00 0.00 28 1017.2
20260905150405 99 30 3.0 8.0 0.00 0.00 0.00 29 1017.3
20260905145905 99 29 5.0 10.0 0.00 0.00 0.00 29 1017.4
20260905145405 99 57 3.0 12.0 0.00 0.00 0.00 29 1017.4
20260905144905 99 27 2.0 9.0 0.00 0.00 0.00 29 1017.4
20260905144406 99 16 4.0 14.0 0.00 0.00 0.00 29 1017.5
20260905143905 99 19 2.0 8.0 0.00 0.00 0.00 29 1017.5
20260905142906 99 29 3.0 9.0 0.00 0.00 0.00 28 1017.6
20260905142405 98 71 1.0 7.0 0.00 0.00 0.00 29 1017.6
20260905141905 98 48 0.0 5.0 0.00 0.00 0.00 29 1017.6
20260905141405 98 71 0.0 3.0 0.00 0.00 0.00 30 1017.7
20260905140405 98 15 2.0 7.0 0.00 0.00 0.00 30 1017.9
20260905135905 98 37 0.0 3.0 0.00 0.00 0.00 30 1018.0
20260905135405 98 71 3.0 8.0 0.00 0.00 0.00 30 1018.1
20260905134405 99 23 5.0 12.0 0.00 0.00 0.00 29 1018.2
20260905133905 99 30 4.0 13.0 0.00 0.00 0.00 29 1018.1
20260905133405 98 34 2.0 9.0 0.00 0.00 0.00 29 1018.1
20260905132905 98 17 2.0 10.0 0.00 0.00 0.00 29 1018.1
20260905132405 98 21 2.0 13.0 0.00 0.00 0.00 30 1018.1
20260905131905 98 23 5.0 13.0 0.00 0.00 0.00 29 1018.2
20260905131405 98 7 3.0 8.0 0.00 0.00 0.00 29 1018.3
20260905130905 97 354 2.0 6.0 0.00 0.00 0.00 31 1018.3
20260905130405 97 329 2.0 8.0 0.00 0.00 0.00 31 1018.3
20260905125905 97 63 0.0 1.0 0.00 0.00 0.00 32 1018.4
20260905125405 96 63 1.0 3.0 0.00 0.00 0.00 33 1018.3
20260905124905 95 336 0.0 1.0 0.00 0.00 0.00 34 1018.4
20260905124406 95 336 2.0 6.0 0.00 0.00 0.00 34 1018.4
20260905123905 95 333 1.0 6.0 0.00 0.00 0.00 35 1018.5
20260905123405 95 277 2.0 7.0 0.00 0.00 0.00 37 1018.5
20260905122405 94 346 1.0 6.0 0.00 0.00 0.00 38 1018.5
20260905121905 94 346 1.0 5.0 0.00 0.00 0.00 38 1018.6
20260905121405 93 346 0.0 1.0 0.00 0.00 0.00 39 1018.7
20260905120905 94 346 0.0 1.0 0.00 0.00 0.00 39 1018.7
20260905120405 93 346 0.0 1.0 0.00 0.00 0.00 40 1018.7
20260905115905 93 346 0.0 3.0 0.00 0.00 0.00 41 1018.7
20260905115405 92 346 0.0 1.0 0.00 0.00 0.00 42 1018.8
20260905114905 90 346 0.0 5.0 0.00 0.00 0.00 44 1018.9
20260905114405 90 346 0.0 7.0 0.00 0.00 0.00 43 1019.0
20260905113905 90 346 1.0 6.0 0.00 0.00 0.00 43 1019.1
20260905113405 91 346 0.0 1.0 0.00 0.00 0.00 43 1019.2
20260905112905 90 346 0.0 1.0 0.00 0.00 0.00 43 1019.2
20260905112405 89 346 0.0 0.0 0.00 0.00 0.00 44 1019.1
20260905111905 88 346 0.0 3.0 0.00 0.00 0.00 44 1019.3
20260905111405 89 346 1.0 3.0 0.00 0.00 0.00 45 1019.3
20260905110905 88 346 0.0 1.0 0.00 0.00 0.00 46 1019.4
20260905110405 87 346 0.0 1.0 0.00 0.00 0.00 46 1019.5
20260905105905 86 346 0.0 3.0 0.00 0.00 0.00 48 1019.6
20260905105405 86 346 2.0 5.0 0.00 0.00 0.00 48 1019.7
20260905104905 86 342 2.0 5.0 0.00 0.00 0.00 48 1019.7
20260905104405 86 304 0.0 1.0 0.00 0.00 0.00 50 1019.8
20260905103405 85 304 0.0 1.0 0.00 0.00 0.00 52 1019.8
20260905102905 84 304 0.0 2.0 0.00 0.00 0.00 52 1019.8
20260905101405 81 234 0.0 3.0 0.00 0.00 0.00 58 1019.8
20260905100905 80 234 2.0 5.0 0.00 0.00 0.00 58 1019.8
20260905100405 80 313 0.0 2.0 0.00 0.00 0.00 58 1019.8
20260905095905 79 313 1.0 3.0 0.00 0.00 0.00 61 1019.7
20260905095405 79 313 2.0 3.0 0.00 0.00 0.00 61 1019.7
20260905094905 78 313 1.0 5.0 0.00 0.00 0.00 63 1019.6
20260905094405 77 313 2.0 3.0 0.00 0.00 0.00 65 1019.7
20260905093905 76 266 2.0 5.0 0.00 0.00 0.00 66 1019.7
20260905093405 75 249 2.0 5.0 0.00 0.00 0.00 67 1019.6
20260905092905 75 298 3.0 6.0 0.00 0.00 0.00 67 1019.6
20260905091905 74 301 3.0 7.0 0.00 0.00 0.00 69 1019.5
20260905091405 73 355 1.0 5.0 0.00 0.00 0.00 70 1019.5
20260905090905 73 308 2.0 5.0 0.00 0.00 0.00 72 1019.5
20260905090405 72 279 3.0 6.0 0.00 0.00 0.00 72 1019.4
20260905085905 72 301 5.0 6.0 0.00 0.00 0.00 72 1019.3
20260905085405 71 295 3.0 7.0 0.00 0.00 0.00 73 1019.3
20260905084905 71 316 2.0 6.0 0.00 0.00 0.00 75 1019.3
20260905084405 70 316 2.0 7.0 0.00 0.00 0.00 75 1019.3
20260905083905 70 15 1.0 5.0 0.00 0.00 0.00 75 1019.3
20260905083405 70 296 3.0 8.0 0.00 0.00 0.00 75 1019.3
20260905082405 70 296 3.0 8.0 0.00 0.00 0.00 74 1019.2
20260905081405 71 335 3.0 6.0 0.00 0.00 0.00 73 1019.2
20260905080905 71 224 1.0 3.0 0.00 0.00 0.00 73 1019.2
20260905080405 71 318 1.0 3.0 0.00 0.00 0.00 74 1019.2
20260905075905 71 323 1.0 3.0 0.00 0.00 0.00 74 1019.2
20260905075405 70 306 2.0 3.0 0.00 0.00 0.00 74 1019.1
20260905074905 70 344 1.0 3.0 0.00 0.00 0.00 75 1019.0
20260905074405 70 336 3.0 5.0 0.00 0.00 0.00 74 1019.1
20260905073905 70 105 0.0 0.0 0.00 0.00 0.00 75 1019.0
20260905073405 70 105 0.0 0.0 0.00 0.00 0.00 76 1018.9
20260905072905 70 105 0.0 0.0 0.00 0.00 0.00 76 1019.0
20260905072406 69 105 0.0 2.0 0.00 0.00 0.00 77 1019.1
20260905071905 69 105 0.0 1.0 0.00 0.00 0.00 78 1019.0
20260905071405 68 105 0.0 0.0 0.00 0.00 0.00 79 1018.9
20260905070905 68 105 0.0 0.0 0.00 0.00 0.00 79 1018.7
20260905070405 68 105 0.0 0.0 0.00 0.00 0.00 79 1018.7
20260905065905 68 105 0.0 0.0 0.00 0.00 0.00 79 1018.7
20260905065405 67 105 0.0 0.0 0.00 0.00 0.00 79 1018.7
20260905064905 67 105 0.0 0.0 0.00 0.00 0.00 79 1018.6
20260905063905 67 105 0.0 0.0 0.00 0.00 0.00 79 1018.6
20260905063405 67 105 0.0 0.0 0.00 0.00 0.00 79 1018.5
20260905062904 67 105 0.0 0.0 0.00 0.00 0.00 79 1018.2
20260905061905 67 105 0.0 0.0 0.00 0.00 0.00 78 1018.1
20260905061405 68 105 0.0 0.0 0.00 0.00 0.00 78 1018.0
20260905060905 68 105 0.0 1.0 0.00 0.00 0.00 78 1018.1
20260905060405 68 105 0.0 0.0 0.00 0.00 0.00 78 1018.0
20260905055904 68 105 0.0 0.0 0.00 0.00 0.00 78 1017.9
20260905054905 68 105 0.0 0.0 0.00 0.00 0.00 77 1017.8
20260905054404 68 105 0.0 0.0 0.00 0.00 0.00 77 1017.7
20260905053405 68 105 0.0 1.0 0.00 0.00 0.00 77 1017.7
20260905052905 68 105 0.0 0.0 0.00 0.00 0.00 77 1017.7
20260905052405 68 105 0.0 0.0 0.00 0.00 0.00 77 1017.8
20260905051405 69 105 0.0 0.0 0.00 0.00 0.00 75 1017.6
20260905050904 69 105 0.0 0.0 0.00 0.00 0.00 75 1017.6
20260905050405 69 105 0.0 0.0 0.00 0.00 0.00 75 1017.5
20260905045905 69 105 0.0 0.0 0.00 0.00 0.00 75 1017.6
20260905044904 70 105 0.0 0.0 0.00 0.00 0.00 74 1017.6
20260905044405 70 105 0.0 0.0 0.00 0.00 0.00 74 1017.5
20260905043905 70 105 0.0 0.0 0.00 0.00 0.00 73 1017.4
20260905043405 70 105 0.0 2.0 0.00 0.00 0.00 73 1017.6
20260905042905 70 105 1.0 2.0 0.00 0.00 0.00 72 1017.5
20260905042404 70 105 0.0 0.0 0.00 0.00 0.00 72 1017.5
20260905041905 70 105 0.0 0.0 0.00 0.00 0.00 73 1017.5
20260905040905 70 105 0.0 0.0 0.00 0.00 0.00 72 1017.6
20260905040404 71 105 0.0 0.0 0.00 0.00 0.00 72 1017.6
20260905035905 71 105 0.0 0.0 0.00 0.00 0.00 72 1017.6
20260905035405 71 105 0.0 0.0 0.00 0.00 0.00 71 1017.6
20260905034905 71 105 0.0 0.0 0.00 0.00 0.00 71 1017.5
20260905034405 71 105 0.0 0.0 0.00 0.00 0.00 71 1017.5
20260905033405 71 105 0.0 0.0 0.00 0.00 0.00 71 1017.5
20260905032904 72 105 0.0 1.0 0.00 0.00 0.00 71 1017.6
20260905032405 72 105 0.0 0.0 0.00 0.00 0.00 71 1017.6
20260905031905 72 105 0.0 0.0 0.00 0.00 0.00 71 1017.7
20260905031404 72 105 0.0 0.0 0.00 0.00 0.00 71 1017.8
20260905030904 72 105 0.0 0.0 0.00 0.00 0.00 72 1017.8
20260905025905 72 105 0.0 0.0 0.00 0.00 0.00 71 1017.8
20260905025405 72 105 0.0 0.0 0.00 0.00 0.00 71 1017.8
20260905024904 72 105 0.0 0.0 0.00 0.00 0.00 71 1017.8
20260905024405 72 105 0.0 0.0 0.00 0.00 0.00 71 1017.9
20260905023904 72 105 0.0 0.0 0.00 0.00 0.00 71 1017.9
20260905023405 72 105 0.0 0.0 0.00 0.00 0.00 70 1017.9
20260905022905 73 105 0.0 0.0 0.00 0.00 0.00 69 1017.8
20260905022404 73 105 0.0 0.0 0.00 0.00 0.00 68 1017.9
20260905021905 73 105 0.0 0.0 0.00 0.00 0.00 68 1017.9
20260905021405 74 105 0.0 0.0 0.00 0.00 0.00 67 1018.0
20260905020904 74 105 0.0 0.0 0.00 0.00 0.00 67 1017.9
20260905020405 75 105 0.0 0.0 0.00 0.00 0.00 66 1017.8
20260905015904 75 105 0.0 0.0 0.00 0.00 0.00 66 1017.8
20260905015405 75 105 0.0 1.0 0.00 0.00 0.00 66 1017.9
20260905014905 76 105 0.0 1.0 0.00 0.00 0.00 65 1017.9
20260905014405 76 105 0.0 0.0 0.00 0.00 0.00 64 1017.9
20260905013904 76 105 0.0 0.0 0.00 0.00 0.00 64 1017.9
20260905013404 76 105 0.0 0.0 0.00 0.00 0.00 64 1018.0
20260905012905 76 105 0.0 1.0 0.00 0.00 0.00 63 1018.1
20260905012404 76 105 0.0 0.0 0.00 0.00 0.00 62 1018.1
20260905011904 76 105 0.0 5.0 0.00 0.00 0.00 62 1018.1
20260905011405 76 105 3.0 3.0 0.00 0.00 0.00 63 1018.1
20260905010905 76 105 0.0 0.0 0.00 0.00 0.00 63 1018.1
20260905005405 77 105 0.0 0.0 0.00 0.00 0.00 63 1018.0
20260905004904 77 105 0.0 0.0 0.00 0.00 0.00 63 1018.0
20260905004405 77 105 0.0 0.0 0.00 0.00 0.00 62 1018.1
20260905003404 77 105 3.0 3.0 0.00 0.00 0.00 62 1018.2
20260905002905 77 105 0.0 1.0 0.00 0.00 0.00 62 1018.3
20260905002405 77 105 0.0 0.0 0.00 0.00 0.00 62 1018.3
20260905001405 77 105 0.0 0.0 0.00 0.00 0.00 62 1018.3
20260905000905 78 105 0.0 0.0 0.00 0.00 0.00 62 1018.4
20260904235904 78 105 0.0 0.0 0.00 0.00 0.00 60 1018.5
20260904235404 79 105 0.0 2.0 0.00 0.00 0.00 59 1018.4
20260904234905 79 105 2.0 3.0 0.00 0.00 0.00 59 1018.3
20260904234404 79 105 1.0 3.0 0.00 0.00 0.00 58 1018.4
20260904233905 79 105 0.0 0.0 0.00 0.00 0.00 56 1018.4
20260904232905 80 105 0.0 2.0 0.00 0.00 0.00 56 1018.6
20260904232404 80 105 0.0 1.0 0.00 0.00 0.00 52 1018.7
20260904231404 80 105 0.0 0.0 0.00 0.00 0.00 55 1018.6
20260904230904 80 105 0.0 0.0 0.00 0.00 0.00 54 1018.6
20260904230405 80 105 1.0 5.0 0.00 0.00 0.00 55 1018.6
20260904225905 80 105 3.0 6.0 0.00 0.00 0.00 55 1018.6
20260904225405 80 105 5.0 6.0 0.00 0.00 0.00 55 1018.6
20260904224905 80 104 3.0 6.0 0.00 0.00 0.00 56 1018.6
20260904224405 80 104 2.0 6.0 0.00 0.00 0.00 56 1018.6
20260904223905 80 104 4.0 7.0 0.00 0.00 0.00 56 1018.6
20260904223404 80 113 3.0 5.0 0.00 0.00 0.00 55 1018.6
20260904222904 80 113 3.0 5.0 0.00 0.00 0.00 55 1018.5
20260904222404 80 113 0.0 1.0 0.00 0.00 0.00 56 1018.5
20260904221904 80 113 0.0 5.0 0.00 0.00 0.00 56 1018.6
20260904221405 80 113 1.0 5.0 0.00 0.00 0.00 57 1018.6
20260904220905 80 113 3.0 6.0 0.00 0.00 0.00 57 1018.6
20260904220404 81 113 1.0 6.0 0.00 0.00 0.00 57 1018.6
20260904215404 81 97 5.0 7.0 0.00 0.00 0.00 56 1018.7
20260904214904 81 105 4.0 7.0 0.00 0.00 0.00 55 1018.7
20260904213905 82 114 3.0 6.0 0.00 0.00 0.00 53 1018.7
20260904212904 83 114 1.0 5.0 0.00 0.00 0.00 51 1018.8
20260904212404 84 114 0.0 1.0 0.00 0.00 0.00 50 1018.8
20260904211904 84 114 1.0 7.0 0.00 0.00 0.00 49 1018.8
20260904211404 85 102 3.0 8.0 0.00 0.00 0.00 47 1018.9
20260904210907 85 99 1.0 6.0 0.00 0.00 0.00 45 1019.1
20260904210404 85 292 0.0 1.0 0.00 0.00 0.00 41 1019.0
20260904205904 86 292 0.0 0.0 0.00 0.00 0.00 40 1018.9
20260904205404 86 242 0.0 1.0 0.00 0.00 0.00 40 1018.8
20260904204904 86 242 0.0 6.0 0.00 0.00 0.00 40 1018.8
20260904204405 85 242 1.0 5.0 0.00 0.00 0.00 40 1018.8
20260904203905 85 239 2.0 8.0 0.00 0.00 0.00 40 1018.9
20260904202904 85 240 0.0 1.0 0.00 0.00 0.00 43 1018.9
20260904202404 85 240 0.0 0.0 0.00 0.00 0.00 43 1018.8
20260904201904 85 240 0.0 7.0 0.00 0.00 0.00 43 1019.0
20260904201405 85 205 0.0 7.0 0.00 0.00 0.00 44 1018.9
20260904200405 84 224 0.0 1.0 0.00 0.00 0.00 47 1018.8
20260904195905 84 224 0.0 0.0 0.00 0.00 0.00 49 1018.8
20260904195404 84 224 0.0 1.0 0.00 0.00 0.00 49 1018.8
20260904194904 84 224 0.0 0.0 0.00 0.00 0.00 50 1018.8
20260904194404 84 224 0.0 0.0 0.00 0.00 0.00 50 1018.9
20260904193404 85 224 0.0 0.0 0.00 0.00 0.00 50 1018.7
20260904192905 85 224 0.0 1.0 0.00 0.00 0.00 50 1018.7
20260904192406 85 153 0.0 1.0 0.00 0.00 0.00 50 1018.4
20260904191406 85 277 0.0 1.0 0.00 0.00 0.00 52 1018.6
20260904190905 85 284 0.0 0.0 0.00 0.00 0.00 52 1018.9
20260904190406 85 284 0.0 0.0 0.00 0.00 0.00 52 1018.8
20260904185906 85 251 1.0 5.0 0.00 0.00 0.00 53 1018.4
20260904185406 85 241 1.0 7.0 0.00 0.00 0.00 53 1018.4
20260904184906 85 229 0.0 6.0 0.00 0.00 0.00 53 1018.6
20260904184405 85 240 0.0 0.0 0.00 0.00 0.00 53 1018.6
20260904183906 85 230 0.0 1.0 0.00 0.00 0.00 53 1018.5
20260904183408 85 194 0.0 2.0 0.00 0.00 0.00 53 1018.8
20260904182405 85 125 1.0 8.0 0.00 0.00 0.00 53 1018.9
20260904181905 85 96 1.0 5.0 0.00 0.00 0.00 53 1018.7
20260904180905 85 159 1.0 8.0 0.00 0.00 0.00 53 1019.2
20260904180406 85 110 0.0 0.0 0.00 0.00 0.00 53 1019.4
20260904175906 85 110 0.0 0.0 0.00 0.00 0.00 53 1019.5
20260904174906 86 135 1.0 5.0 0.00 0.00 0.00 52 1019.1
20260904174405 86 43 0.0 3.0 0.00 0.00 0.00 52 1018.9
20260904172905 86 72 1.0 8.0 0.00 0.00 0.00 50 1019.9
20260904171905 86 94 0.0 5.0 0.00 0.00 0.00 50 1020.0
20260904171406 86 47 1.0 9.0 0.00 0.00 0.00 50 1020.0
20260904170905 87 65 1.0 7.0 0.00 0.00 0.00 50 1019.7
20260904170405 87 69 0.0 7.0 0.00 0.00 0.00 50 1019.1
20260904165905 87 75 1.0 6.0 0.00 0.00 0.00 49 1018.9
20260904165405 87 87 0.0 1.0 0.00 0.00 0.00 49 1018.7
20260904164905 87 87 6.0 12.0 0.00 0.00 0.00 48 1018.8
20260904164405 87 19 2.0 6.0 0.00 0.00 0.00 48 1018.5
20260904163905 87 109 1.0 5.0 0.00 0.00 0.00 48 1018.2
20260904163406 87 19 2.0 6.0 0.00 0.00 0.00 48 1018.3
20260904162905 87 340 1.0 7.0 0.00 0.00 0.00 48 1018.5
20260904162405 88 120 3.0 8.0 0.00 0.00 0.00 47 1019.1
20260904161906 88 80 0.0 5.0 0.00 0.00 0.00 47 1020.0
20260904161405 88 74 0.0 3.0 0.00 0.00 0.00 47 1020.2
20260904160905 88 74 0.0 3.0 0.00 0.00 0.00 47 1020.1
20260904160405 89 74 0.0 1.0 0.00 0.00 0.00 46 1019.9
20260904155905 89 74 0.0 6.0 0.00 0.00 0.00 47 1019.9
20260904155405 89 80 2.0 7.0 0.00 0.00 0.00 46 1019.6
20260904154905 89 110 1.0 5.0 0.00 0.00 0.00 46 1019.6
20260904153905 89 228 0.0 0.0 0.00 0.00 0.00 47 1019.6
20260904153405 89 228 0.0 0.0 0.00 0.00 0.00 46 1019.6
20260904152905 88 228 0.0 0.0 0.00 0.00 0.00 47 1019.8